Theta_e
315 315 315 312 311 309 308 308 310 310 309 308 311 312 313 313 312 312 312 311 311 313 314 317 326 333 335 335 336 336 335 334 333 333 336 335 334 333 334 333 333 332 332 332
316 316 312 311 311 310 309 307 309 310 308 308 309 310 310 310 311 312 313 313 312 311 311 312 313 318 333 335 335 336 336 336 336 336 335 333 333 335 334 334 334 333 333 332
313 313 313 311 312 312 310 308 306 307 309 309 308 308 308 309 309 309 310 310 311 312 311 311 311 312 315 332 335 335 335 336 336 336 335 334 335 335 335 334 334 334 334 333
311 311 312 313 313 310 310 309 308 308 307 305 307 306 309 309 309 308 309 310 310 310 310 311 311 311 310 312 321 334 335 335 336 336 336 334 335 335 334 334 334 335 334 334
310 311 312 313 313 311 310 308 309 308 307 307 306 307 307 308 307 307 308 308 308 308 306 307 306 306 306 306 309 311 330 335 335 336 335 335 334 335 335 335 335 334 334 333
309 310 312 312 311 311 310 309 308 308 308 310 306 306 306 307 306 307 306 307 306 307 308 308 307 307 308 307 304 307 309 322 332 334 334 335 334 335 335 335 333 332 331 330
310 311 311 311 313 312 311 310 312 311 314 310 306 306 306 307 306 307 308 308 309 308 306 305 305 304 304 306 309 310 310 318 322 326 328 331 331 332 333 331 331 332 328 326
311 311 312 310 311 312 312 310 311 311 312 309 307 306 306 308 308 308 307 308 306 304 303 301 300 300 299 300 303 306 308 306 310 315 318 321 324 324 322 322 323 320 317 317
310 309 308 310 310 311 312 313 309 310 307 311 309 308 307 309 309 308 309 307 305 303 300 299 297 296 296 296 296 298 300 300 300 301 304 307 309 310 308 309 310 309 308 307
308 309 308 309 310 310 311 310 312 312 312 311 307 308 308 311 310 309 309 306 303 301 299 297 295 294 294 293 293 293 293 294 294 294 295 296 298 299 299 300 299 299 300 301
308 310 308 309 311 311 311 313 313 310 311 310 311 308 309 310 311 310 307 305 303 300 298 296 294 292 292 291 291 291 290 290 290 290 291 291 291 292 293 293 293 293 294 295
306 308 308 309 307 310 309 311 313 313 314 311 311 310 307 310 310 308 304 304 300 298 296 294 293 292 290 290 289 289 288 288 288 288 288 287 287 288 288 288 288 289 290 292
306 308 307 307 307 309 311 311 311 313 312 314 314 308 308 308 308 307 305 301 298 296 294 293 292 291 289 288 288 287 287 287 287 286 286 286 286 286 286 286 286 287 288 289
305 306 306 305 306 308 311 310 312 315 317 314 313 309 308 308 308 306 304 301 298 296 294 292 291 289 287 287 286 286 285 285 285 285 285 285 284 284 284 284 285 286 286 287
306 306 306 306 306 306 308 307 308 315 313 316 314 313 309 307 308 306 303 300 297 295 294 292 290 288 287 286 286 285 284 284 285 284 284 284 283 283 283 283 283 284 284 285
302 304 303 303 305 306 307 307 307 307 307 313 313 312 310 306 306 304 301 298 297 295 293 291 289 287 286 285 284 284 283 283 283 283 283 282 282 282 282 282 283 283 283 283
302 304 303 302 303 304 304 303 305 305 307 309 311 310 307 304 304 302 301 299 298 295 292 290 288 286 284 283 283 282 282 282 281 281 281 280 280 280 280 280 281 281 282 281
300 301 303 302 302 301 301 299 300 303 304 306 306 305 307 306 305 303 301 300 297 294 291 288 285 283 282 281 281 280 280 280 279 278 278 278 278 278 278 278 278 278 279 279
299 301 301 302 301 301 299 299 298 300 301 303 304 303 305 298 298 300 297 298 295 291 288 286 284 282 280 280 279 279 278 278 277 277 276 276 276 277 277 277 276 277 277 277
297 298 301 299 299 298 297 296 296 299 301 301 303 303 300 295 303 304 292 291 289 287 284 282 281 280 279 278 278 278 277 276 275 274 274 274 274 275 274 274 274 275 275 275
296 297 298 299 298 298 298 295 296 300 299 295 298 302 297 297 296 291 287 286 284 283 282 280 279 279 278 277 276 276 275 274 273 273 273 273 273 273 273 273 273 273 274 274
296 297 297 297 296 296 295 294 297 296 293 293 294 296 298 291 288 287 286 284 283 281 280 279 278 276 274 275 275 275 274 272 272 271 271 271 271 271 272 272 272 272 273 273
298 297 298 297 297 297 295 295 294 292 292 293 293 293 294 289 287 286 285 283 282 280 279 277 276 274 273 273 274 273 271 271 270 270 270 270 270 270 271 271 271 272 272 273
295 294 297 297 299 298 297 296 293 292 292 291 290 292 292 291 287 285 284 282 280 279 276 275 274 273 271 272 272 272 271 270 269 269 269 269 269 269 269 270 270 271 272 272
294 293 296 297 297 296 296 294 293 293 289 287 286 288 290 290 286 284 282 281 279 277 275 273 273 272 271 270 270 270 269 269 268 268 269 269 269 269 269 269 269 270 270 270
292 294 294 296 295 296 298 290 288 290 288 287 287 285 283 285 286 284 281 279 278 276 273 272 272 271 270 269 268 268 268 267 268 268 268 269 269 268 268 268 268 268 269 268
Wind_Speed
13 9 12 15 15 15 6 9 12 11 4 5 18 18 18 16 11 10 8 10 13 13 13 13 9 15 18 20 22 23 22 20 21 25 22 20 20 19 18 19 18 18 17 17
7 16 15 10 12 13 13 11 11 11 3 6 13 15 16 17 16 18 17 16 13 11 11 13 14 14 18 20 22 23 23 22 24 21 21 18 19 17 18 18 19 20 20 20
17 2 16 13 12 14 15 16 12 5 4 9 11 18 20 18 18 17 16 17 16 14 12 9 11 13 13 18 22 22 23 23 23 23 22 19 16 18 18 18 18 20 22 21
15 20 8 16 15 14 16 13 14 13 6 7 4 8 12 15 14 13 15 15 15 13 10 9 9 6 9 11 13 19 22 23 23 24 21 23 21 17 18 17 18 17 20 21
12 11 16 15 15 15 13 12 10 12 11 11 17 8 12 10 11 12 9 4 4 5 5 6 6 6 6 4 6 10 13 19 21 22 23 22 21 19 16 15 14 15 13 16
20 4 13 18 11 11 4 7 7 8 9 11 18 14 11 13 12 7 5 4 3 4 5 6 7 7 6 5 4 7 10 14 15 18 21 21 20 19 14 14 13 12 10 10
15 16 6 5 12 12 13 13 5 6 6 9 2 13 17 5 3 1 3 2 5 6 6 7 8 10 11 11 9 5 5 5 6 10 13 15 15 15 13 9 12 12 13 13
13 10 18 13 13 7 17 17 6 7 8 10 6 9 5 2 5 3 3 4 5 6 6 8 9 11 12 13 13 11 11 10 6 7 7 7 8 10 12 12 14 14 11 8
7 20 8 14 15 14 14 18 15 5 2 3 7 9 3 6 5 5 4 4 5 6 7 8 10 12 13 14 15 14 14 14 13 13 14 14 14 14 14 13 12 12 10 8
6 6 11 16 15 18 16 12 12 7 6 9 10 13 9 9 11 8 7 5 5 6 6 8 10 12 13 14 15 16 16 17 16 16 17 18 17 17 16 15 14 13 12 11
8 2 5 12 15 17 14 11 9 10 10 8 11 11 6 9 10 10 6 5 6 7 7 7 9 12 14 15 16 17 17 17 18 17 17 18 19 18 17 17 15 14 13 13
16 3 8 10 7 16 19 20 17 7 10 11 7 5 1 5 3 7 8 8 8 7 7 7 9 11 14 15 16 17 17 18 17 16 17 18 17 17 18 17 15 14 15 14
9 4 6 4 6 4 10 14 18 17 13 11 11 7 5 7 7 8 10 9 8 8 7 7 9 11 12 14 14 15 16 16 15 15 16 17 17 17 17 16 15 15 14 14
3 5 7 10 3 1 5 12 11 10 8 15 14 15 8 9 10 8 8 9 8 7 7 7 8 9 10 11 13 14 15 14 14 14 16 17 17 16 15 15 15 14 14 14
2 3 4 9 5 6 5 7 9 9 12 7 12 13 6 13 12 10 8 8 7 7 7 6 7 8 9 10 11 12 12 12 12 14 15 15 14 13 14 14 14 13 13 13
4 2 1 1 5 6 8 8 8 9 5 9 9 8 8 5 8 10 10 10 8 8 7 7 7 9 9 8 8 9 10 11 11 13 14 12 12 12 13 12 12 12 13 12
2 3 4 3 2 4 6 13 12 9 7 3 3 2 3 1 6 10 10 9 9 9 9 8 8 9 8 8 7 7 7 8 10 11 11 11 11 11 11 11 11 11 11 10
2 1 1 0 2 4 2 1 4 8 11 13 11 11 13 14 14 7 4 7 8 9 10 9 10 9 9 8 8 7 7 7 9 9 9 9 8 9 8 8 9 9 9 9
2 1 2 3 6 6 6 6 5 6 6 15 14 9 7 6 5 6 5 4 6 8 9 11 9 9 8 7 7 7 7 7 8 8 8 7 7 7 7 7 7 6 6 7
3 2 3 1 4 4 3 4 4 2 5 5 10 10 10 10 8 8 12 8 11 14 14 14 13 11 9 6 7 7 6 6 7 5 5 5 5 6 6 5 5 5 6 6
2 3 8 8 6 6 5 3 1 4 1 3 2 6 12 8 2 8 11 11 14 15 15 14 12 11 9 7 7 7 5 5 4 3 3 4 4 4 4 4 4 5 5 5
6 6 4 6 4 10 3 2 6 3 2 2 1 2 6 6 8 9 10 11 14 15 15 13 12 10 8 7 7 6 5 4 4 4 3 3 4 3 3 4 5 5 5 5
5 6 2 6 5 1 2 6 2 1 2 1 2 3 7 9 6 9 9 10 12 14 14 12 11 10 8 8 7 8 7 7 6 6 5 4 4 4 4 3 4 3 4 3
5 4 3 1 7 12 9 8 8 5 5 2 1 5 8 7 10 10 9 8 11 13 13 13 13 11 10 10 9 9 9 8 8 7 5 5 4 3 3 3 3 2 2 2
2 7 6 8 10 7 12 10 9 7 4 2 1 0 2 6 7 8 8 9 12 12 13 14 14 12 11 11 10 10 10 9 9 7 6 5 4 4 2 2 2 2 2 3
6 9 7 9 5 7 3 2 1 5 6 6 5 2 0 1 5 7 7 12 14 15 15 14 13 12 12 12 12 12 11 11 10 7 6 6 5 4 3 2 2 3 6 5
Wind_Direction
196 212 215 217 218 239 299 255 252 227 163 231 240 243 245 244 220 247 245 235 245 243 254 239 244 218 216 212 210 205 201 204 198 198 205 210 209 209 214 215 214 213 211 211
218 227 224 236 230 233 242 238 229 276 256 238 261 250 255 256 251 248 246 254 240 243 246 243 230 222 220 217 214 211 211 204 202 202 205 202 207 213 218 216 216 215 214 212
219 284 210 227 220 220 226 230 232 242 314 265 277 264 251 251 241 239 239 250 255 252 240 246 225 223 218 218 220 218 215 212 209 207 200 208 209 213 216 218 221 219 217 217
232 231 197 215 225 222 234 221 243 258 258 246 257 280 240 226 221 230 236 237 244 250 254 253 262 224 225 229 233 229 220 216 212 208 200 202 204 205 217 218 219 218 221 219
221 225 209 221 225 224 245 252 212 231 244 271 248 259 249 235 223 237 212 218 255 336 331 303 336 340 307 301 234 239 231 223 216 211 209 206 212 225 225 217 208 211 207 213
228 224 208 223 222 209 224 195 210 234 242 250 242 225 245 228 224 198 143 114 66 30 29 35 34 21 19 359 259 233 221 221 220 214 215 215 215 225 224 202 193 200 194 185
230 216 207 207 180 192 193 179 180 203 205 244 198 226 236 192 126 297 287 102 55 46 38 31 31 32 29 32 36 66 196 138 175 185 197 211 219 220 212 188 184 180 161 167
210 212 214 197 211 187 199 197 204 216 219 247 149 237 227 275 75 110 113 98 69 54 52 47 41 43 41 39 49 61 75 70 89 116 126 134 138 133 133 132 132 137 139 151
214 233 183 194 206 186 196 223 231 311 184 294 207 251 198 172 175 176 151 104 68 61 60 61 56 54 54 54 53 62 72 73 72 81 95 98 104 109 106 111 120 124 123 114
308 260 201 199 209 222 220 197 213 216 235 235 241 234 259 192 194 185 165 125 109 91 79 71 66 65 65 65 65 68 72 73 72 77 82 88 95 97 99 99 94 93 94 100
190 256 200 205 204 211 215 216 236 226 235 247 255 247 2 183 189 187 144 143 122 104 88 80 74 71 70 71 68 68 67 69 70 73 78 81 79 81 89 88 82 81 85 80
219 246 255 246 341 316 245 214 207 215 204 235 283 263 66 80 127 129 153 140 116 106 98 87 78 73 70 66 64 65 65 66 66 70 75 76 79 80 80 77 76 79 78 79
182 219 243 221 226 254 236 230 228 229 264 229 224 229 139 132 137 144 159 143 137 127 113 96 80 69 69 70 68 67 64 65 67 70 73 72 71 73 73 73 73 73 75 77
291 221 241 242 313 258 225 208 230 239 216 235 227 242 186 179 161 158 150 148 143 137 128 114 97 82 74 70 69 68 65 63 65 68 70 67 64 66 69 72 72 74 75 74
169 222 263 267 283 272 228 233 291 240 255 245 251 276 215 193 175 165 157 153 149 150 143 121 110 101 88 79 76 75 71 69 71 72 69 67 65 65 67 67 69 70 73 71
163 185 136 2 303 251 257 237 226 246 251 266 237 266 245 156 166 153 167 173 173 173 155 139 128 113 98 83 73 69 68 67 71 72 70 67 65 64 62 62 62 65 65 65
211 168 170 246 189 291 278 239 222 224 204 164 253 111 24 208 194 184 176 183 184 177 167 157 145 129 117 106 98 83 74 71 70 69 67 65 64 63 58 57 58 59 61 62
170 211 296 112 180 230 282 20 307 257 253 205 205 209 197 194 213 167 204 193 191 169 166 159 152 144 134 127 115 108 97 87 84 76 68 65 69 72 70 71 67 60 62 65
318 184 213 246 226 325 258 220 197 213 249 220 220 192 211 113 107 229 176 190 156 137 140 149 149 143 134 131 126 122 110 103 91 80 72 61 61 69 70 72 69 70 81 80
194 7 252 174 259 241 31 30 359 315 265 175 199 193 173 151 199 225 164 152 133 138 145 149 149 144 136 139 131 124 112 101 86 80 82 82 82 82 81 81 75 74 81 83
173 208 233 232 251 273 327 343 336 188 292 8 303 193 171 192 13 116 133 134 140 145 150 150 150 147 148 148 141 130 125 111 116 114 102 98 91 90 90 92 86 82 85 92
191 186 197 218 242 253 132 146 222 356 22 360 278 248 172 113 119 137 146 148 151 152 155 159 154 152 150 153 152 146 143 164 152 148 144 138 133 110 115 119 103 96 94 86
237 226 226 215 227 357 221 277 317 289 292 254 259 154 144 139 155 159 160 163 164 162 163 161 157 150 156 168 171 169 174 171 170 168 163 155 146 135 117 107 104 94 99 94
224 187 234 273 232 248 257 256 241 227 243 273 202 152 160 157 158 160 161 163 163 163 161 162 161 168 172 181 179 187 187 181 177 171 167 161 142 141 141 131 125 106 110 93
329 156 212 252 265 291 268 240 246 221 221 242 277 326 152 133 162 165 166 166 170 169 167 175 177 179 185 185 189 189 187 181 171 173 172 165 167 158 166 177 186 185 223 189
184 222 215 248 229 218 259 92 14 188 210 201 194 216 252 145 152 164 170 176 174 176 177 179 184 185 188 187 190 192 188 183 175 174 177 180 179 183 194 213 253 254 233 251